Location: Orange Harbor Mobile Home Park
(26.6923°N, 81.7937°W)
Time: 08:07:27
(UTC+00:00)

BREEZE-M DEB (TANK) - Pass Details

Date: 19 September 2020
Orbit: 306 x 13931 km, 46.1° (Epoch: 29 October)

Event Time Altitude Azimuth Distance (km) Brightness Sun altitude
Exits shadow 09:11:42 44° 289° (WNW) 2,035 4.7 -27.9°
Maximum altitude 09:13:05 47° 314° (NW) 1,699 4.5 -27.6°
Drops below altitude 10° 09:17:43 10° 30° (NNE) 2,201 5.9 -26.6°
Sets 09:19:13 0° 38° (NE) 2,772 6.7 -26.3°
